| time (UTC) | temp F | wind direction | speed MPH | gust MPH | rain 1hr in | rain 24hr in | rain mn in | humidity % | barometer mb |
| 20260504195306 | 80 | 280 | 9.0 | 12.0 | 0.00 | 0.00 | 0.00 | 31 | 1012.2 |
| 20260504194307 | 81 | 260 | 5.0 | 11.0 | 0.00 | 0.00 | 0.00 | 30 | 1012.2 |
| 20260504193305 | 81 | 269 | 0.0 | 14.0 | 0.00 | 0.00 | 0.00 | 33 | 1011.8 |
| 20260504192304 | 80 | 259 | 4.0 | 13.0 | 0.00 | 0.00 | 0.00 | 33 | 1011.8 |
| 20260504190303 | 80 | 228 | 10.0 | 13.0 | 0.00 | 0.00 | 0.00 | 33 | 1011.7 |
| 20260504185306 | 81 | 244 | 4.0 | 10.0 | 0.00 | 0.00 | 0.00 | 34 | 1011.8 |
| 20260504183307 | 80 | 240 | 4.0 | 9.0 | 0.00 | 0.00 | 0.00 | 35 | 1011.8 |
| 20260504182304 | 81 | 246 | 6.0 | 9.0 | 0.00 | 0.00 | 0.00 | 34 | 1011.6 |
| 20260504180304 | 80 | 247 | 7.0 | 14.0 | 0.00 | 0.00 | 0.00 | 33 | 1012.0 |
| 20260504175304 | 80 | 281 | 2.0 | 10.0 | 0.00 | 0.00 | 0.00 | 33 | 1012.0 |
| 20260504174304 | 80 | 169 | 4.0 | 6.0 | 0.00 | 0.00 | 0.00 | 35 | 1012.2 |
| 20260504172304 | 79 | 242 | 5.0 | 9.0 | 0.00 | 0.00 | 0.00 | 36 | 1012.4 |
| 20260504171303 | 80 | 204 | 2.0 | 11.0 | 0.00 | 0.00 | 0.00 | 36 | 1012.4 |
| 20260504170305 | 80 | 258 | 7.0 | 13.0 | 0.00 | 0.00 | 0.00 | 36 | 1012.3 |
| 20260504160304 | 77 | 308 | 2.0 | 7.0 | 0.00 | 0.00 | 0.00 | 41 | 1012.4 |
| 20260504141301 | 70 | 262 | 2.0 | 3.0 | 0.00 | 0.00 | 0.00 | 49 | 1012.0 |
| 20260504140301 | 69 | 263 | 1.0 | 4.0 | 0.00 | 0.00 | 0.00 | 50 | 1011.8 |
| 20260504130259 | 68 | 258 | 2.0 | 2.0 | 0.00 | 0.00 | 0.00 | 47 | 1010.9 |
| 20260504120250 | 68 | 246 | 1.0 | 2.0 | 0.00 | 0.00 | 0.00 | 49 | 1010.8 |
| 20260504110245 | 70 | 287 | 0.0 | 2.0 | 0.00 | 0.00 | 0.00 | 46 | 1010.5 |
| 20260504100244 | 71 | 266 | 0.0 | 2.0 | 0.00 | 0.00 | 0.00 | 48 | 1010.9 |
| 20260504081244 | 73 | 229 | 2.0 | 2.0 | 0.00 | 0.00 | 0.00 | 43 | 1010.2 |
| 20260504080243 | 74 | 231 | 1.0 | 2.0 | 0.00 | 0.00 | 0.00 | 43 | 1010.4 |
| 20260504070244 | 75 | 258 | 3.0 | 5.0 | 0.00 | 0.00 | 0.00 | 41 | 1010.2 |
| 20260504050242 | 79 | 253 | 3.0 | 9.0 | 0.00 | 0.00 | 0.00 | 31 | 1010.0 |
| 20260504045242 | 79 | 259 | 2.0 | 11.0 | 0.00 | 0.00 | 0.00 | 30 | 1010.2 |
| 20260504043242 | 80 | 257 | 6.0 | 9.0 | 0.00 | 0.00 | 0.00 | 29 | 1010.0 |
| 20260504042241 | 80 | 266 | 3.0 | 15.0 | 0.00 | 0.00 | 0.00 | 29 | 1009.7 |
| 20260504041242 | 80 | 278 | 5.0 | 11.0 | 0.00 | 0.00 | 0.00 | 29 | 1009.6 |
| 20260504040240 | 81 | 259 | 4.0 | 10.0 | 0.00 | 0.00 | 0.00 | 29 | 1009.2 |
| 20260504034240 | 82 | 284 | 3.0 | 11.0 | 0.00 | 0.00 | 0.00 | 28 | 1009.0 |
| 20260504033239 | 82 | 289 | 6.0 | 12.0 | 0.00 | 0.00 | 0.00 | 26 | 1008.7 |
| 20260504032240 | 82 | 240 | 10.0 | 12.0 | 0.00 | 0.00 | 0.00 | 25 | 1008.5 |
| 20260504031240 | 82 | 245 | 3.0 | 10.0 | 0.00 | 0.00 | 0.00 | 25 | 1008.3 |
| 20260504025240 | 83 | 274 | 2.0 | 7.0 | 0.00 | 0.00 | 0.00 | 25 | 1007.9 |
| 20260504024239 | 84 | 252 | 4.0 | 13.0 | 0.00 | 0.00 | 0.00 | 24 | 1007.8 |
| 20260504023240 | 85 | 246 | 6.0 | 17.0 | 0.00 | 0.00 | 0.00 | 24 | 1007.5 |
| 20260504022239 | 85 | 259 | 4.0 | 15.0 | 0.00 | 0.00 | 0.00 | 23 | 1007.2 |
| 20260504021243 | 85 | 241 | 8.0 | 14.0 | 0.00 | 0.00 | 0.00 | 23 | 1007.2 |
| 20260504020251 | 86 | 233 | 3.0 | 15.0 | 0.00 | 0.00 | 0.00 | 23 | 1006.9 |
| 20260504015240 | 87 | 247 | 9.0 | 21.0 | 0.00 | 0.00 | 0.00 | 22 | 1006.8 |
| 20260504014239 | 88 | 247 | 12.0 | 15.0 | 0.00 | 0.00 | 0.00 | 21 | 1006.5 |
| 20260504012240 | 90 | 240 | 4.0 | 17.0 | 0.00 | 0.00 | 0.00 | 20 | 1006.8 |
| 20260504011239 | 91 | 269 | 3.0 | 16.0 | 0.00 | 0.00 | 0.00 | 19 | 1006.3 |
| 20260504010239 | 92 | 265 | 4.0 | 15.0 | 0.00 | 0.00 | 0.00 | 18 | 1006.4 |
| 20260504005241 | 92 | 242 | 7.0 | 17.0 | 0.00 | 0.00 | 0.00 | 17 | 1006.4 |
| 20260504004240 | 93 | 228 | 10.0 | 20.0 | 0.00 | 0.00 | 0.00 | 17 | 1006.5 |
| 20260504003240 | 94 | 235 | 4.0 | 20.0 | 0.00 | 0.00 | 0.00 | 17 | 1006.5 |
| 20260504002241 | 94 | 259 | 13.0 | 17.0 | 0.00 | 0.00 | 0.00 | 17 | 1006.2 |
| 20260504001239 | 95 | 265 | 5.0 | 16.0 | 0.00 | 0.00 | 0.00 | 17 | 1006.2 |
| 20260504000243 | 95 | 225 | 6.0 | 19.0 | 0.00 | 0.00 | 0.00 | 17 | 1006.2 |
| 20260503235239 | 96 | 217 | 8.0 | 16.0 | 0.00 | 0.00 | 0.00 | 17 | 1006.2 |
| 20260503232240 | 96 | 158 | 5.0 | 7.0 | 0.00 | 0.00 | 0.00 | 20 | 1006.2 |
| 20260503231240 | 96 | 196 | 1.0 | 8.0 | 0.00 | 0.00 | 0.00 | 20 | 1006.4 |
| 20260503230240 | 96 | 161 | 3.0 | 10.0 | 0.00 | 0.00 | 0.00 | 20 | 1006.4 |
| 20260503225238 | 97 | 293 | 3.0 | 8.0 | 0.00 | 0.00 | 0.00 | 20 | 1006.8 |
| 20260503223239 | 95 | 244 | 2.0 | 7.0 | 0.00 | 0.00 | 0.00 | 21 | 1007.2 |
| 20260503222239 | 95 | 142 | 4.0 | 6.0 | 0.00 | 0.00 | 0.00 | 21 | 1007.2 |
| 20260503221239 | 96 | 245 | 2.0 | 6.0 | 0.00 | 0.00 | 0.00 | 20 | 1007.5 |
| 20260503215239 | 95 | 205 | 2.0 | 9.0 | 0.00 | 0.00 | 0.00 | 21 | 1007.8 |
| 20260503214240 | 96 | 180 | 4.0 | 9.0 | 0.00 | 0.00 | 0.00 | 21 | 1008.0 |
| 20260503213240 | 97 | 231 | 6.0 | 9.0 | 0.00 | 0.00 | 0.00 | 20 | 1008.5 |
| 20260503212240 | 95 | 164 | 0.0 | 7.0 | 0.00 | 0.00 | 0.00 | 21 | 1008.4 |
| 20260503210241 | 95 | 221 | 0.0 | 7.0 | 0.00 | 0.00 | 0.00 | 21 | 1008.6 |
| 20260503205240 | 95 | 183 | 2.0 | 11.0 | 0.00 | 0.00 | 0.00 | 21 | 1008.9 |
| 20260503203239 | 94 | 251 | 8.0 | 9.0 | 0.00 | 0.00 | 0.00 | 22 | 1009.3 |
| 20260503202239 | 93 | 203 | 2.0 | 9.0 | 0.00 | 0.00 | 0.00 | 22 | 1008.9 |
| 20260503201239 | 93 | 193 | 4.0 | 11.0 | 0.00 | 0.00 | 0.00 | 22 | 1009.2 |
| 20260503200239 | 91 | 352 | 2.0 | 9.0 | 0.00 | 0.00 | 0.00 | 24 | 1009.6 |